Theta_e
293 294 295 294 295 299 304 307 309 312 313 315 316 316 317 318 319 319 319 320 320 321 320 321 322 323 323 323 322 322 322 322 323 323 323 323 321 318 320 319 320 320 320 321 321 321 321 321 322 321 321 320 319 318 318 319 318 317 315 315 314 314
293 293 293 293 294 295 295 296 299 306 311 311 313 315 315 314 315 316 317 318 319 319 319 319 320 321 322 322 321 322 322 322 322 322 322 322 319 319 319 317 317 316 317 318 320 321 321 320 321 321 320 320 319 318 317 317 317 316 315 314 311 309
291 290 289 290 289 289 290 294 298 302 303 307 310 312 313 312 314 314 316 316 316 316 317 318 318 319 320 319 320 320 321 321 319 322 322 319 320 318 315 316 316 316 316 316 316 319 320 319 319 319 319 318 317 317 317 316 314 314 313 312 310 307
290 288 287 287 288 290 290 291 291 295 300 305 306 306 309 310 309 311 313 311 313 314 316 316 311 315 316 317 318 318 320 320 320 320 317 318 319 316 317 316 317 315 316 316 317 318 319 319 319 318 317 316 315 315 315 314 311 310 310 307 307 304
288 288 289 290 290 291 289 289 292 293 293 295 298 303 305 304 306 306 307 309 310 311 312 310 310 311 311 314 316 316 317 317 314 313 316 316 316 313 317 318 318 317 317 316 316 317 317 318 317 317 316 315 315 314 312 311 310 310 311 310 309 307
284 287 289 290 290 290 290 290 290 290 290 290 291 294 295 295 298 299 302 304 306 307 305 307 306 305 306 308 310 311 312 312 311 311 313 315 315 315 315 316 318 316 316 315 315 315 315 315 315 315 314 316 315 314 315 313 311 311 311 310 309 306
289 291 290 290 289 287 287 289 290 289 291 288 290 291 289 291 291 295 298 299 302 300 303 304 304 306 306 307 307 307 307 307 307 307 310 312 313 314 313 312 313 314 315 315 314 314 314 314 314 314 313 313 314 314 314 313 311 307 304 302 302 300
288 287 288 289 288 289 290 290 290 290 290 291 289 291 288 287 286 294 295 294 298 300 300 301 301 303 305 305 305 304 303 303 302 305 304 306 311 309 310 312 312 312 314 314 314 314 314 314 313 313 313 311 310 310 308 304 304 304 306 305 304 301
290 291 289 289 288 288 290 290 291 289 288 289 287 287 287 288 288 289 292 292 296 298 298 299 300 301 302 302 303 301 300 301 301 302 304 302 304 306 307 308 310 309 312 313 313 313 314 314 313 312 311 310 308 306 305 304 302 300 299 298 297 296
290 290 290 288 289 288 288 288 288 290 289 290 289 288 287 287 288 289 291 293 294 297 298 299 298 298 299 299 298 299 297 296 296 299 301 300 303 305 306 308 309 310 309 311 311 312 311 311 310 308 307 307 307 305 304 303 301 298 295 294 293 293
292 291 289 289 286 287 287 287 287 287 287 287 287 286 288 287 290 292 293 293 294 296 296 296 294 295 295 294 296 296 296 295 295 294 294 295 299 301 302 303 304 306 307 305 305 305 303 305 305 304 304 305 305 304 303 302 298 294 294 292 291 290
292 290 289 288 288 288 287 287 288 288 288 289 288 288 289 287 291 293 292 293 294 293 292 293 293 294 294 295 295 294 293 293 293 293 293 294 294 295 295 297 298 300 300 300 298 299 299 300 301 298 299 299 302 301 299 297 294 293 292 292 290 289
290 288 289 291 291 290 291 291 290 287 287 288 289 290 291 290 291 292 292 293 293 292 290 292 293 293 293 292 290 289 291 292 291 292 292 292 292 293 293 293 295 294 294 295 295 295 296 298 298 297 298 298 299 297 296 295 293 291 291 291 292 291
289 290 291 292 292 291 290 291 289 287 290 290 290 290 290 290 292 293 293 294 292 292 292 293 292 293 292 291 290 289 287 288 290 291 291 291 291 289 289 291 291 291 291 292 292 292 292 293 294 297 297 297 297 295 295 294 292 291 291 291 291 290
291 292 292 292 292 292 292 292 290 291 292 291 290 290 292 291 292 293 293 293 293 293 293 292 293 292 291 290 289 288 287 288 288 289 290 290 288 288 289 289 290 289 289 290 291 291 290 291 293 295 295 296 296 296 295 293 292 291 291 290 290 289
292 292 293 294 294 294 292 290 293 294 291 290 289 292 293 293 293 293 294 293 293 292 292 291 291 291 289 289 288 288 288 288 288 287 287 287 287 288 288 288 288 288 289 289 290 290 289 290 291 294 294 294 295 295 294 291 292 291 290 290 290 289
293 293 292 292 292 291 289 289 291 289 289 289 291 292 293 294 294 294 294 292 292 291 291 291 290 289 289 288 287 287 287 288 287 287 287 287 288 288 288 288 288 288 288 288 289 289 289 289 291 293 293 294 294 295 293 289 289 290 289 289 288 288
293 293 294 295 293 291 291 293 291 289 289 288 291 291 293 294 295 294 293 292 291 291 291 290 289 289 288 287 287 287 287 287 288 287 287 287 287 286 287 287 287 287 287 287 288 288 288 288 291 292 293 293 294 294 289 288 288 288 288 287 287 287
293 294 295 295 294 294 293 292 290 291 289 289 289 290 291 292 293 294 293 292 291 291 290 290 290 288 288 287 287 287 287 287 287 286 287 287 287 287 287 287 286 287 287 287 288 288 287 287 290 291 292 293 294 291 287 288 287 287 287 286 286 286
293 292 292 293 293 294 293 290 290 290 289 289 289 290 291 291 293 293 292 292 290 290 290 290 290 289 287 287 288 288 287 286 286 287 287 288 287 287 286 286 286 286 287 287 287 288 288 287 287 290 291 292 293 290 287 287 287 286 286 285 284 284
292 290 289 289 291 291 289 289 289 290 290 289 289 289 290 291 292 292 292 291 291 290 290 290 290 289 288 288 288 288 287 287 287 286 287 287 287 287 286 286 287 286 286 286 287 286 287 286 286 289 291 292 292 289 287 287 286 286 285 284 283 283
288 288 289 290 292 292 289 288 289 290 290 289 288 289 290 291 291 291 291 291 290 290 289 289 289 288 288 288 288 287 287 287 286 286 287 286 287 287 286 286 286 286 286 286 286 286 286 286 286 287 290 291 291 290 287 287 287 286 285 284 284 283
291 292 292 292 293 290 288 289 290 290 290 289 288 289 290 290 290 290 291 290 290 289 289 289 289 288 288 288 288 287 287 287 287 286 286 286 286 286 286 286 286 286 285 285 285 285 286 286 286 286 290 291 291 290 288 286 287 287 286 285 284 284
289 289 289 288 289 288 288 289 290 290 289 288 288 290 288 288 289 290 290 289 289 289 288 288 288 288 288 287 287 287 286 287 287 287 287 287 286 286 286 286 286 285 285 285 285 285 285 285 285 285 288 290 291 290 289 286 286 286 286 285 284 283
289 290 290 288 285 287 288 289 290 289 288 288 289 288 288 289 289 289 289 289 289 288 288 288 288 288 288 287 287 287 286 286 286 286 286 286 286 286 285 285 285 285 285 284 284 284 285 285 285 285 286 288 290 290 289 288 286 288 286 285 283 283
290 290 287 284 284 286 287 289 289 289 288 289 287 287 288 288 289 289 288 288 288 288 287 287 287 287 287 287 287 287 286 286 286 286 286 286 286 286 285 285 285 285 284 284 283 284 284 284 285 285 285 286 289 290 290 289 288 288 285 285 284 284
290 289 286 284 284 285 287 288 290 289 289 288 287 287 288 288 288 288 288 288 287 287 287 287 287 287 287 286 287 286 286 286 286 286 286 286 286 286 285 285 285 285 284 284 283 283 283 284 284 284 285 285 286 289 290 289 289 288 287 284 283 283
287 287 286 284 283 284 285 287 289 289 289 285 286 287 288 287 287 287 287 287 287 287 287 286 286 286 286 286 287 286 286 286 286 286 285 285 285 285 285 284 284 284 284 283 283 283 282 282 283 283 284 284 285 286 288 288 287 286 285 284 283 283
286 286 286 286 284 284 283 283 283 284 284 285 287 287 287 287 287 287 287 287 287 287 286 287 286 286 286 286 286 286 286 286 286 286 285 285 285 285 284 284 284 284 283 283 283 282 282 282 282 282 283 283 284 284 285 286 285 285 284 279 279 280
288 288 287 288 286 283 282 280 281 282 284 285 286 287 287 287 287 287 287 287 287 287 287 287 284 285 286 286 286 285 285 286 286 286 285 285 285 284 284 284 283 284 284 283 283 282 281 281 281 281 282 282 283 282 281 280 280 279 276 274 270 271
288 288 288 287 283 282 282 281 279 282 284 286 286 287 287 287 287 287 286 286 286 286 286 286 286 286 285 285 285 284 285 285 286 285 283 282 284 286 285 284 284 284 284 284 282 281 278 277 277 278 282 279 282 279 277 275 275 272 271 276 278 273
284 284 284 281 281 282 282 280 280 281 284 286 287 287 287 286 286 286 286 286 286 286 285 285 286 285 285 284 282 281 280 281 284 284 284 282 283 283 284 284 280 282 281 280 279 278 276 276 274 280 283 283 284 284 283 281 281 281 276 281 283 276
280 281 280 279 280 280 280 279 279 280 282 285 286 287 287 286 286 286 285 285 285 284 285 285 284 284 283 283 282 281 280 279 281 283 283 283 283 283 283 283 282 281 280 278 274 274 282 282 283 284 284 284 285 285 285 285 284 284 283 284 278 271
280 280 280 279 279 279 278 277 277 278 279 282 285 286 286 286 286 285 285 284 283 282 282 283 282 281 281 281 281 281 280 279 278 278 282 283 283 283 283 283 282 282 283 282 277 272 270 280 284 284 284 285 285 285 285 285 285 285 285 285 282 271
280 279 278 278 278 277 277 275 273 274 277 280 283 285 285 285 285 284 283 282 281 281 280 280 280 280 280 280 280 280 280 280 279 277 276 278 282 283 282 283 283 283 283 283 283 282 280 281 283 284 284 285 285 285 285 286 286 286 286 285 278 271
278 277 276 276 276 275 275 272 271 272 274 278 281 284 284 284 283 282 281 281 280 280 280 280 280 280 280 280 280 279 279 279 278 277 275 274 274 275 278 281 282 283 283 283 283 283 283 283 283 283 283 284 284 285 285 285 281 286 286 283 276 274
276 274 274 274 274 274 273 270 269 270 271 277 281 281 282 281 280 280 277 276 277 280 279 279 279 279 278 278 277 277 276 276 274 274 274 274 273 273 273 270 273 279 281 278 280 282 283 282 283 283 283 283 284 284 285 283 274 272 272 274 275 275
274 273 273 273 273 272 271 268 269 270 271 277 279 279 279 278 278 278 278 278 277 278 278 278 277 277 277 276 275 274 273 273 273 273 272 271 272 272 271 268 267 269 275 277 279 282 282 282 283 283 283 283 283 283 281 271 270 271 269 269 269 273
Wind_Speed
9 9 9 7 6 6 7 6 6 6 7 9 11 14 14 14 12 12 11 12 11 11 13 13 13 13 13 13 11 9 11 13 12 11 12 9 8 7 8 8 8 8 8 9 9 9 10 10 11 10 10 10 10 10 10 10 9 10 11 11 10 10
7 7 7 7 8 7 6 5 4 7 8 8 10 10 8 8 9 10 11 11 11 10 9 10 11 12 12 11 10 10 12 13 11 11 11 11 7 9 8 8 9 8 9 8 9 10 10 10 10 10 10 9 10 10 9 10 11 11 12 12 10 6
6 5 5 6 4 4 4 5 8 7 5 8 9 11 10 9 10 9 10 8 9 10 11 11 10 11 10 9 9 11 12 11 11 11 10 6 10 8 8 9 9 9 9 10 10 11 10 10 10 10 9 9 10 10 10 10 11 11 10 9 10 9
7 5 4 3 3 4 5 5 5 6 7 9 7 7 8 9 8 8 9 7 8 10 11 10 6 7 7 9 10 11 11 11 10 9 7 9 10 8 9 10 9 9 10 10 11 11 11 11 11 10 10 10 9 9 8 8 9 10 8 5 6 7
5 3 2 3 4 4 4 4 5 6 6 6 6 8 9 7 7 6 7 8 8 9 8 6 7 7 7 9 10 10 11 9 7 7 9 10 9 7 10 10 10 10 10 11 11 11 10 11 10 9 10 11 10 10 8 7 7 9 10 12 12 12
3 2 4 4 3 4 4 4 4 3 3 4 4 7 6 5 6 6 6 7 8 8 7 8 7 7 7 9 8 9 8 8 7 7 9 10 8 9 9 9 10 9 10 10 10 9 9 8 8 8 9 11 11 11 12 11 11 11 12 12 13 10
5 5 4 4 4 4 4 4 5 4 4 4 5 5 5 5 5 6 6 6 8 7 8 8 7 8 9 9 8 9 9 8 8 7 9 8 9 9 8 7 7 8 8 9 9 9 9 9 8 9 8 8 10 11 11 11 11 9 5 3 2 2
4 4 5 4 4 5 5 5 5 5 5 6 5 5 4 5 3 5 6 6 7 7 7 7 6 8 9 9 8 8 6 6 6 6 6 6 8 7 6 7 7 8 9 9 9 9 9 9 10 9 9 8 7 7 7 4 5 6 6 8 9 9
8 8 5 5 5 5 5 5 6 5 5 6 5 4 5 5 4 3 5 5 6 6 7 7 8 7 7 7 7 5 5 5 5 5 5 4 6 6 6 6 7 7 7 8 8 9 9 10 10 10 9 7 6 6 6 6 6 6 6 5 5 5
6 7 7 5 7 6 5 5 6 5 6 7 5 5 5 4 4 4 4 5 6 6 7 6 5 5 5 5 4 5 4 4 4 5 5 5 6 7 7 7 8 8 7 8 8 9 8 7 7 7 7 8 8 8 8 7 7 5 4 3 4 5
9 8 6 6 5 6 6 6 6 5 5 5 4 4 6 5 6 6 6 6 7 7 4 4 4 4 4 4 4 4 4 3 3 2 2 4 5 6 5 4 4 5 6 6 6 5 4 4 5 4 5 6 7 5 5 5 4 4 4 4 3 3
9 6 4 5 7 7 6 6 7 7 7 7 5 5 4 5 6 6 6 6 6 4 3 4 4 4 3 3 3 2 1 1 1 1 2 2 2 3 3 4 4 4 4 4 3 2 3 3 3 5 7 6 4 4 4 4 4 4 4 5 4 3
6 5 5 8 8 9 8 8 6 5 5 5 6 6 5 6 6 5 6 6 4 4 4 4 4 4 4 3 3 2 2 1 1 1 1 1 2 2 2 3 3 3 3 4 4 3 3 2 2 3 4 5 5 4 4 4 4 4 5 6 7 8
7 8 9 10 9 8 7 7 6 4 9 7 7 6 5 6 6 6 6 5 5 5 6 5 5 5 4 4 3 3 2 2 1 1 1 2 2 1 2 2 3 3 3 3 3 3 3 2 2 3 5 6 8 8 5 5 5 6 6 6 6 4
11 12 11 8 9 9 11 8 6 9 10 8 6 6 7 7 7 6 6 5 5 5 5 5 6 5 4 3 3 3 2 1 1 2 2 2 2 3 3 3 3 3 2 3 3 3 3 2 3 5 7 8 9 10 8 5 6 6 6 6 6 6
8 10 12 13 13 12 7 8 11 11 6 5 6 8 7 8 7 7 6 6 5 5 5 5 5 4 3 3 2 2 2 2 2 2 2 3 3 3 3 3 3 3 3 3 4 4 3 3 4 6 7 7 8 9 8 4 6 5 5 6 6 6
13 12 10 9 10 8 6 6 9 4 4 6 8 7 8 8 8 7 7 6 5 5 5 5 4 4 3 3 3 3 3 3 3 3 3 3 3 4 4 4 4 3 3 3 3 3 3 2 3 4 6 7 8 9 6 3 3 3 3 4 4 5
15 14 14 13 9 7 8 11 7 6 6 4 6 7 7 7 7 7 6 7 7 7 6 6 5 4 4 5 4 4 4 4 5 4 3 3 3 3 3 2 2 3 2 2 2 2 1 1 2 2 4 6 6 8 4 4 5 4 4 3 3 3
11 13 12 11 12 11 12 9 7 8 6 7 7 7 7 7 8 8 8 7 7 7 7 7 7 6 6 5 5 5 5 5 4 4 3 4 4 4 3 3 2 3 4 3 3 3 3 2 3 6 7 7 9 7 3 4 3 3 3 3 2 3
11 10 8 9 10 12 9 7 8 9 8 8 6 7 7 8 9 8 8 8 8 8 8 8 8 8 8 7 7 6 5 4 3 4 4 5 5 4 4 4 3 3 3 4 4 5 4 3 3 5 6 7 9 7 5 4 4 3 3 3 2 2
13 10 7 6 8 8 6 8 9 9 9 8 8 8 9 10 10 9 10 9 9 9 9 9 9 9 9 9 8 8 8 7 6 4 4 4 4 4 4 4 4 3 2 3 4 5 5 3 2 4 5 7 9 7 5 5 4 4 3 3 3 3
4 5 8 11 14 12 9 9 9 10 10 9 7 9 11 13 12 9 7 8 8 8 8 8 9 8 9 9 8 7 7 6 6 6 6 5 5 5 4 4 4 4 3 3 4 4 4 5 3 4 7 8 10 10 7 5 6 6 6 5 4 4
11 13 14 15 13 7 9 9 10 10 10 9 9 12 14 8 7 8 9 8 8 8 9 8 8 9 8 7 8 7 6 7 7 7 6 6 5 5 5 5 4 4 3 2 2 3 2 2 3 2 5 7 10 11 8 5 5 4 4 4 3 3
8 9 8 7 7 9 10 11 12 12 10 9 13 15 6 7 8 8 9 9 9 9 8 8 7 8 8 6 7 8 7 6 7 8 7 6 6 7 6 5 4 4 4 3 2 3 3 3 4 2 4 6 8 10 9 5 3 4 5 4 4 4
11 13 13 8 6 7 9 11 13 11 10 12 16 7 7 8 9 9 9 9 9 9 9 8 9 8 7 7 7 8 7 6 6 6 7 7 7 6 6 5 4 4 4 3 3 3 3 2 2 4 3 4 7 9 8 7 5 6 5 5 5 5
10 10 7 5 6 7 8 12 12 11 12 16 6 8 7 9 8 9 9 9 9 9 8 8 8 7 6 7 7 6 7 6 5 5 5 5 6 6 5 4 4 4 4 4 3 3 2 2 2 3 4 3 5 7 8 8 8 7 4 4 3 3
13 11 9 8 9 9 10 11 14 14 16 10 10 10 11 10 10 10 10 9 9 9 7 7 7 7 6 6 7 6 6 6 5 5 3 4 4 5 5 5 4 4 4 4 4 3 2 2 2 2 3 4 3 4 7 8 8 7 7 3 2 2
6 8 10 8 8 8 9 10 10 16 14 9 10 11 11 11 11 11 10 9 8 8 8 9 7 7 6 6 5 5 5 6 6 5 5 4 4 4 4 4 4 4 4 4 4 3 2 2 2 2 2 2 3 2 4 7 8 8 7 5 4 4
10 11 12 13 11 10 9 9 7 5 6 11 9 10 10 11 11 10 9 10 9 8 9 9 8 7 7 6 5 5 6 6 6 6 6 5 5 5 5 5 5 4 4 4 3 3 2 2 2 2 2 2 2 3 3 4 4 6 6 4 3 4
14 15 14 14 12 10 8 6 6 5 8 9 10 10 11 11 11 11 10 10 9 8 9 8 9 9 7 6 6 6 5 5 5 7 7 7 7 7 6 6 6 6 6 5 4 4 3 2 2 2 3 3 3 3 3 3 4 4 5 4 3 3
14 14 14 10 5 6 6 5 5 7 10 10 10 11 12 11 10 9 9 8 8 8 7 7 8 7 8 7 6 4 3 5 6 6 5 2 2 4 7 8 6 5 4 5 6 6 4 4 4 5 4 3 4 5 5 4 5 3 3 5 8 6
7 6 6 4 6 6 6 5 4 4 6 8 10 11 12 11 10 10 9 8 8 8 8 8 7 7 8 8 8 7 6 7 7 4 6 5 4 7 6 5 4 5 6 6 3 2 4 6 4 3 5 6 6 6 6 5 5 5 5 6 9 6
5 6 7 7 6 6 6 6 5 6 5 6 8 9 10 11 10 9 8 9 8 9 8 8 8 8 7 8 8 7 8 6 7 11 10 7 7 8 8 8 9 9 6 6 5 1 2 3 2 3 4 5 5 5 5 5 6 6 7 8 6 2
7 8 9 7 7 7 7 7 5 5 5 5 7 8 9 10 10 9 9 8 8 9 8 7 8 8 9 8 8 8 8 9 8 7 9 10 10 12 12 11 10 8 7 7 8 6 2 3 3 3 3 4 4 4 5 5 6 7 8 9 8 4
6 6 6 7 7 7 7 8 5 4 4 5 6 7 9 9 9 9 8 8 9 8 8 9 9 9 9 9 9 9 8 9 9 9 7 8 12 13 11 11 10 10 9 9 8 7 6 5 6 5 4 4 4 4 5 5 6 7 9 9 5 5
7 7 7 7 8 7 7 7 3 3 2 4 6 7 9 8 8 8 8 8 9 9 8 8 8 8 8 8 7 7 8 8 8 9 9 9 7 8 9 10 10 9 9 9 9 8 8 8 7 6 6 5 4 5 5 6 3 8 9 8 5 5
7 7 6 7 8 7 7 7 3 1 1 3 6 8 8 8 8 7 7 9 8 7 8 7 8 8 8 8 8 8 8 8 7 9 9 9 9 9 8 6 6 8 10 7 6 8 9 8 8 7 6 6 6 5 7 8 6 4 3 4 3 4
7 7 6 6 6 7 7 5 1 2 3 5 7 8 8 8 8 7 7 7 8 8 7 7 7 7 8 8 8 7 7 8 8 8 7 7 7 8 8 6 4 4 6 10 10 10 10 9 9 9 8 7 6 8 9 5 3 4 2 4 2 3
Wind_Direction
233 231 232 234 234 233 230 229 210 211 211 210 210 214 214 209 206 210 214 211 212 214 214 213 214 216 220 221 220 209 213 221 221 222 226 226 218 214 215 206 213 212 211 212 218 216 219 221 223 220 219 215 218 217 220 218 216 216 217 216 210 217
230 227 227 231 226 226 228 223 208 213 213 206 214 222 220 211 210 210 214 213 213 217 216 216 216 217 220 219 210 212 217 223 220 222 224 223 206 217 210 208 213 209 209 212 216 219 219 219 220 218 219 216 220 217 216 215 212 215 215 216 214 220
252 242 236 238 247 246 229 207 208 213 203 214 215 214 216 210 212 206 215 209 214 218 218 218 214 217 216 215 211 214 220 223 219 220 222 208 218 210 204 213 213 209 209 212 215 218 219 219 219 216 217 216 219 219 216 214 209 213 222 221 219 219
261 257 251 246 235 237 220 223 209 208 208 214 213 218 220 212 210 203 209 203 208 215 221 221 213 211 205 210 214 216 219 221 218 218 209 213 220 202 210 214 213 210 209 212 215 218 220 219 218 213 212 213 216 220 217 217 213 221 232 227 222 210
249 250 232 203 200 211 212 208 201 209 214 210 213 207 220 204 208 198 199 202 205 216 217 209 208 202 202 208 215 218 220 221 216 203 209 216 218 206 211 214 213 212 211 214 215 216 217 217 216 211 208 213 212 214 217 218 213 213 216 218 222 218
278 280 250 229 216 205 208 207 212 219 216 213 205 216 220 211 206 196 197 203 210 210 203 208 206 197 204 210 215 217 218 213 210 202 210 215 212 213 215 215 215 214 212 216 215 216 218 219 219 215 211 213 212 214 218 217 217 217 221 221 221 216
236 231 228 228 230 236 236 227 220 212 220 206 205 217 213 212 200 192 203 200 208 208 205 210 199 202 206 211 210 215 213 211 211 206 211 211 215 217 212 216 217 216 215 217 216 217 219 220 219 221 221 221 219 219 218 220 216 213 210 218 229 221
249 254 241 236 233 227 225 224 223 220 217 219 204 202 207 217 196 200 189 200 202 208 210 210 202 210 211 212 215 216 212 210 209 210 217 210 217 214 212 209 210 211 215 215 216 216 217 218 218 216 219 219 222 227 230 212 192 190 201 211 210 199
246 235 235 226 225 225 227 223 225 222 224 234 227 219 210 204 177 171 190 191 205 203 210 206 209 208 212 211 214 209 208 211 209 207 218 211 217 212 212 212 212 215 215 217 216 215 215 217 213 214 217 215 206 201 195 197 202 208 214 214 200 194
251 248 237 227 227 223 230 230 230 226 216 226 220 209 208 195 176 177 191 187 206 211 208 208 203 203 208 204 196 195 194 184 189 203 209 199 209 213 210 208 208 214 208 215 214 219 222 220 207 204 208 203 197 193 198 198 202 204 201 193 195 191
235 238 237 238 230 230 231 231 234 232 239 235 223 194 205 182 183 193 195 197 209 214 201 192 192 183 174 163 151 150 153 158 166 175 183 190 205 203 204 205 213 215 214 215 211 210 190 197 213 211 204 204 208 199 192 195 195 191 193 193 185 172
232 232 236 249 232 230 228 228 225 218 216 221 207 203 200 149 187 183 191 201 210 192 183 188 177 174 150 137 140 131 100 92 95 135 165 178 176 161 153 161 168 179 195 193 192 173 164 178 180 182 193 194 191 194 182 154 168 174 177 179 179 192
226 230 233 235 227 220 216 219 219 212 222 220 202 201 182 171 175 187 175 193 190 173 170 177 181 154 145 134 107 95 100 94 103 127 141 142 147 157 144 140 145 155 160 171 176 180 180 171 161 168 183 198 177 154 165 171 161 161 173 183 193 205
220 219 224 226 224 218 215 218 208 194 226 210 204 189 160 173 184 184 189 186 169 173 166 171 160 154 148 130 119 104 94 93 105 113 127 135 125 95 99 107 129 131 142 146 149 163 171 181 144 164 174 173 171 163 162 164 169 178 186 192 196 189
213 212 218 220 218 212 219 197 177 212 216 206 192 152 168 181 187 187 188 182 175 172 161 155 154 148 134 125 118 107 91 90 95 108 120 130 135 113 115 142 135 136 127 131 142 151 150 163 162 181 181 182 180 172 163 172 176 176 186 188 188 179
223 221 215 210 212 208 199 181 197 215 200 170 149 170 178 179 190 190 190 176 178 167 164 154 141 132 125 115 107 115 138 153 152 135 128 131 123 120 124 122 128 134 142 158 162 160 161 166 184 179 176 178 177 174 168 170 174 177 179 187 185 178
219 219 221 227 225 211 171 199 220 202 152 171 172 179 176 187 184 192 186 178 170 163 163 148 135 133 130 123 128 140 164 172 154 147 153 152 156 150 151 148 135 145 145 138 135 136 138 167 180 175 174 175 174 170 155 137 129 140 164 172 178 175
214 211 216 219 213 200 183 207 193 178 196 167 180 177 185 182 188 190 175 177 175 171 162 147 142 143 143 144 141 150 164 171 179 173 166 129 117 114 113 99 105 129 114 91 88 88 75 27 51 165 177 171 168 151 135 138 138 149 156 158 163 162
214 219 217 211 204 195 201 197 169 181 165 174 184 176 182 181 193 194 185 180 171 166 160 153 151 155 154 152 153 166 170 172 169 166 161 138 151 147 147 151 140 147 137 136 139 138 140 159 189 186 180 175 160 140 127 125 119 129 149 151 139 133
219 226 217 223 214 209 195 165 168 172 176 183 175 173 187 189 205 193 182 182 170 163 159 158 160 164 165 162 172 176 179 174 163 170 174 161 160 156 160 144 123 129 148 155 162 162 158 187 202 178 175 164 159 143 139 136 134 133 142 122 104 109
208 214 209 208 224 230 185 169 166 168 188 185 181 183 186 203 204 188 186 180 169 168 168 168 168 170 169 173 178 174 172 176 174 162 156 151 148 152 154 152 142 141 138 152 153 158 153 161 186 178 176 170 157 136 133 140 144 147 156 149 145 148
163 183 193 203 220 209 179 168 170 186 189 191 173 186 203 209 201 182 165 161 166 166 166 169 170 174 175 179 176 176 172 159 148 160 157 157 155 153 156 152 150 150 152 143 146 155 157 155 169 179 173 168 158 151 148 151 153 177 176 173 167 169
199 208 207 211 214 184 171 168 175 191 196 179 181 206 214 198 157 160 163 157 161 167 171 173 175 176 181 178 175 170 161 163 160 156 159 155 151 144 147 154 154 141 136 124 113 127 111 128 143 152 168 166 167 160 151 167 176 162 154 151 157 179
213 227 236 229 189 177 175 173 183 197 185 180 203 215 177 150 160 154 156 163 167 169 173 175 175 175 176 172 163 164 169 172 164 163 160 153 153 156 155 152 149 137 123 98 85 89 83 75 97 122 149 162 166 166 157 156 166 154 147 146 167 178
214 217 218 203 183 179 184 177 186 188 184 195 213 174 150 158 156 158 160 163 167 174 175 176 175 175 169 169 172 166 166 165 161 158 156 156 154 151 146 143 132 121 111 88 67 64 67 69 88 114 130 143 155 167 167 151 145 145 151 161 179 194
216 218 212 185 188 183 183 181 185 188 187 211 166 144 151 156 159 156 161 167 172 170 175 174 172 166 165 167 164 164 155 158 158 152 159 152 146 141 135 125 122 114 117 119 91 63 48 36 64 76 101 125 144 159 164 157 155 155 164 163 177 168
204 202 202 199 189 192 191 193 188 187 200 196 145 163 162 161 160 161 167 170 170 171 169 162 164 163 162 164 159 154 154 148 148 141 134 137 131 135 138 139 140 137 133 124 123 102 56 49 51 46 68 87 120 151 162 166 160 155 145 152 155 140
203 190 199 206 203 199 199 203 193 189 203 150 161 161 162 157 159 164 168 167 165 166 158 159 156 155 157 151 148 145 144 145 144 139 139 135 130 128 124 127 125 118 121 120 126 135 124 72 81 72 56 52 87 119 157 167 169 167 170 154 152 151
190 198 197 202 203 198 200 199 207 188 129 161 159 158 153 158 160 161 163 164 161 157 162 162 160 153 149 145 133 135 145 150 147 143 144 149 143 132 128 128 132 133 130 137 134 130 121 89 91 100 99 76 94 106 114 139 160 156 136 99 100 110
197 200 198 205 197 191 186 182 175 148 149 152 160 153 152 155 163 164 167 163 160 162 164 160 150 148 145 143 139 137 140 144 150 149 154 164 159 148 147 151 154 158 157 152 151 140 143 145 156 182 170 169 140 117 93 108 124 140 145 126 100 99
204 206 202 201 152 163 166 167 152 152 156 157 156 156 153 156 154 154 154 156 153 157 157 150 153 148 141 131 118 93 108 154 154 138 113 56 135 153 157 166 163 158 155 151 155 153 153 183 204 223 193 171 162 144 134 136 143 142 144 150 133 89
219 204 189 152 149 157 156 146 146 150 159 154 158 156 154 151 151 152 160 159 159 152 151 149 149 145 139 133 126 119 83 48 61 94 135 134 104 95 95 106 155 159 147 144 130 121 156 180 211 208 162 165 164 161 155 153 150 151 140 150 137 113
153 150 153 156 150 149 145 140 143 152 161 163 160 156 150 151 153 157 156 159 163 160 154 149 144 144 136 135 135 130 124 110 67 60 76 97 110 107 101 103 110 115 123 130 152 242 68 126 108 121 146 148 158 161 158 145 151 148 150 146 109 70
162 167 167 152 148 144 141 134 136 148 156 157 154 148 150 157 159 162 164 158 150 148 149 144 142 140 140 141 143 143 144 131 118 83 53 68 83 83 86 91 101 108 96 100 119 126 59 85 116 134 140 150 155 163 163 165 156 158 155 164 133 97
154 141 137 145 139 136 139 135 112 136 150 152 149 147 151 159 159 158 154 151 148 148 146 146 148 149 147 149 151 154 152 144 139 128 113 61 61 70 76 81 88 92 95 97 102 112 125 114 94 101 123 160 165 166 167 164 157 155 156 148 120 117
132 132 135 135 136 131 130 105 67 91 139 142 141 144 147 148 148 149 155 158 156 151 154 152 153 150 150 148 150 152 150 145 139 137 131 123 111 77 60 60 69 87 99 98 99 102 105 102 96 91 97 113 138 150 152 144 146 150 158 152 150 140
125 117 128 133 132 132 132 125 138 267 206 140 135 134 135 135 135 135 138 144 149 153 152 151 147 147 145 149 151 149 145 137 136 137 138 144 142 136 125 115 71 63 74 80 89 103 105 109 107 108 109 110 117 124 119 102 79 79 43 66 112 150
120 111 122 131 131 130 129 101 284 197 173 140 135 132 133 136 138 141 149 153 151 148 151 151 149 148 150 151 149 143 135 134 136 135 133 124 119 120 121 105 88 80 55 60 63 81 100 101 107 106 102 99 107 119 107 91 104 99 96 100 75 117